Flag for Kazakhstan Weather past 2 weeks in Almaty, Kazakhstan

Now
70 °F

Partly sunny.


Feels Like: 70 °F
Forecast: 52 / 71 °F
Wind: 6 mph from Northwest

Location: Almaty Airport

Current Time: May 24, 2015 at 12:29:41 PM

Latest Report: May 24, 2015 at 12:00 PM


Visibility: N/A

Pressure: 29.98 "Hg

Humidity: 33%

Dew point: 39 °F

Location of AlmatyLocation

Historic Weather in Almaty — Graph

°F

Almaty temperature yesterday

Maximum temperature yesterday: 75 °F (at 1:30 PM)
Minimum temperature yesterday: 54 °F (at 11:30 PM)
Average temperature yesterday: 63 °F

Past Weeks' High & Low Weather Summary

 TemperatureHumidityPressure
High86 °F (May 16, 2:00 PM)94% (May 10, 1:30 AM)30.21 "Hg (May 10, 1:30 AM)
Low50 °F (May 10, 4:00 AM)20% (May 14, 4:00 PM)29.65 "Hg (May 16, 1:30 PM)
Average65 °F60%29.99 "Hg
* Reported May 9 11:00 AM — May 24 11:30 AM, Almaty, Weather by CustomWeather, © 2015

Note: Actual official high and low records may vary slightly from our data, if they occured in-between our weather recording intervals... More about our weather records

Advertising

Almaty weather history for previous 24 hours

 ConditionsComfort  
Time TempWeatherWind HumidityBarometerVisibility
11:30 AM
Sun, May 24
72 °FScattered clouds.6 mph31%30.01 "HgN/A
11:00 AM70 °FScattered clouds.6 mph38%29.98 "HgN/A
10:30 AM70 °FScattered clouds.3 mph33%29.98 "HgN/A
10:00 AM68 °FBroken clouds.6 mph40%29.98 "HgN/A
9:30 AM68 °FBroken clouds.6 mph40%29.98 "HgN/A
9:00 AM66 °FBroken clouds.3 mph40%29.98 "HgN/A
8:30 AM66 °FScattered clouds.3 mph43%29.98 "HgN/A
8:00 AM64 °FScattered clouds.1 mph43%29.98 "HgN/A
7:30 AM61 °FScattered clouds.1 mph59%29.98 "HgN/A
7:00 AM57 °FScattered clouds.3 mph67%29.98 "HgN/A
6:30 AM54 °FScattered clouds.3 mph72%29.98 "HgN/A
6:00 AM52 °FPartly sunny.1 mph72%29.98 "HgN/A
5:30 AM52 °FPartly sunny.3 mph77%29.98 "HgN/A
5:00 AM52 °FPassing clouds.6 mph77%29.98 "HgN/A
4:30 AM54 °FPassing clouds.3 mph67%29.95 "HgN/A
4:00 AM54 °FPassing clouds.6 mph67%29.95 "HgN/A
3:30 AM54 °FOvercast.3 mph72%29.95 "HgN/A
3:00 AM54 °FMostly cloudy.6 mph72%29.95 "HgN/A
2:30 AM54 °FMostly cloudy.8 mph72%29.95 "HgN/A
2:00 AM55 °FPassing clouds.8 mph63%29.92 "HgN/A
1:30 AM54 °FPartly cloudy.1 mph72%29.95 "HgN/A
1:00 AM54 °FPartly cloudy.3 mph67%29.98 "HgN/A
12:30 AM54 °FPartly cloudy.3 mph67%29.95 "HgN/A
12:00 AM54 °FPartly cloudy.6 mph67%29.95 "HgN/A
11:30 PM
Sat, May 23
54 °FMostly cloudy.6 mph67%29.95 "HgN/A
11:00 PM57 °FMostly cloudy.1 mph59%29.95 "HgN/A
10:30 PM55 °FMostly cloudy.1 mph63%29.98 "HgN/A
10:00 PM57 °FMostly cloudy.3 mph55%29.95 "HgN/A
9:30 PM57 °FMostly cloudy.8 mph59%29.95 "HgN/A
9:00 PM57 °FMostly cloudy.6 mph59%29.98 "HgN/A
8:30 PM59 °FMostly cloudy.10 mph51%29.98 "HgN/A
8:00 PM59 °FMostly cloudy.8 mph51%29.98 "HgN/A
7:30 PM59 °FMostly cloudy.10 mph55%29.98 "HgN/A
7:00 PM61 °FMostly cloudy.15 mph55%29.95 "HgN/A
6:30 PM59 °FMostly cloudy.10 mph68%29.92 "HgN/A
6:00 PM61 °FSprinkles. Mostly cloudy.8 mph63%29.95 "HgN/A
5:30 PM61 °FSprinkles. Mostly cloudy.13 mph63%29.95 "HgN/A
5:00 PM64 °FSprinkles. Mostly cloudy.8 mph46%29.92 "HgN/A
4:30 PM66 °FMostly cloudy.6 mph49%29.89 "HgN/A
4:00 PM68 °FSprinkles. Mostly cloudy.6 mph35%29.86 "HgN/A
3:30 PM70 °FMostly cloudy.1 mph35%29.86 "HgN/A
3:00 PM72 °FBroken clouds.6 mph22%29.83 "HgN/A
2:30 PM72 °FBroken clouds.6 mph25%29.83 "HgN/A
2:00 PM73 °FPartly sunny.6 mph23%29.83 "HgN/A
1:30 PM75 °FBroken clouds.8 mph27%29.83 "HgN/A
1:00 PM73 °FScattered clouds.8 mph22%29.86 "HgN/A
12:30 PM73 °FScattered clouds.8 mph25%29.86 "HgN/A
12:00 PM73 °FScattered clouds.6 mph25%29.86 "HgN/A
Weather by CustomWeather, © 2015

See weather overviewHow to use our weather pages